Location: Ladrillo (historical)
(32.8195°N, 117.2231°W)
Time: 07:27:08
(UTC+00:00)

FO-99 - Pass Details

Date: 13 April 2021
Orbit: 472 x 506 km, 97.2° (Epoch: 09 May)

Event Time Altitude Azimuth Distance (km) Brightness Sun altitude
Exits shadow 03:10:02 17° 94° (E) 1,351 ? -11.5°
Maximum altitude 03:11:06 19° 71° (ENE) 1,269 ? -11.7°
Drops below altitude 10° 03:13:43 10° 26° (NNE) 1,721 ? -12.3°
Sets 03:16:16 0° 8° (N) 2,612 ? -12.8°
